STARLINK-4484 (53417 NORAD) Tracking and Keplerian Element Data

This shows tracking and keplerian element data for the satellite.

Feedback or suggestion? Click here.




ElementValue
Catalog53417
NameSTARLINK-4484
Epoch Orbit797
Epoch Day270.25001157
Epoch Year2022
RAAN11.48
Inclination53.2171
Eccentricity0.0001703
Argument of Perigee44.2154
Mean Anonmoly226.2551
Mean Motion15.49889421
Decay Rate0.00043316
L11 53417U 22097AF 22270.25001157 .00043316 00000+0 76679-3 0 9998
L22 53417 53.2171 11.4800 0001703 44.2154 226.2551 15.49889421 7973

Live tracking and technical data element details for STARLINK-4484 (NORAD 53417). STARLINK-4484 can be tracked NOW for your location showing map with azimuth and elevation plus other details from your city location.

Track the satellite on the map from your city or location and see movement details for azimuth, elevation, latitude, longitude, range, height, and movement on the map or in text.







IsCatalogInMostPopularTable: catalog: 53417, numindb: 2
Update: records affected: 1



GetName: 53417 STARLINK-4484

Hit Count: updated at: Thu, 29 Sep 2022 11:47:31 GMT